Tracking 17784 objects as of 24-July-2016
HD Live streaming from Space Station
objects crossing your sky now

USA 224

Track USA 224 now!
10-day predictions
USA 224 is classified as:


NORAD ID: 37348
Int'l Code: 2011-002A
Perigee: 272.3 km
Apogee: 1,016.0 km
Inclination: 97.9 °
Period: 97.5 minutes
Semi major axis: 7015 km
RCS: Unknown
Launch date: January 20, 2011
Source: United States (US)
Launch site: AIR FORCE WESTERN TEST RANGE (AFWTR)

USA 224 is a secret satellite serving the U.S. National Reconnaissance Office.
Your satellite tracking list
Your tracking list is empty





NASA's NSSDC Master Catalog

Two Line Element Set (TLE):
1 37348U 11002A   15244.98213017 0.00019500  00000-0  19743-3 0    01
2 37348  97.8813 355.6727 0530016 184.2375 175.7624 14.77570628    02
Source of the keplerian elements: McCants

N2YO: 888